Content
SEND FEEDBACK

Daily
Averages
Monthly
Summary
United States of America

FORT STOCKTON, TEXAS


Home > North America > United States > Texas
Elevation: 3010 feet     Latitude: 30 55N     Longitude: 102 55W

WEATHER
 
SELECT A DAY
Number of Records: 170,124;   Date Range: 7/1/96 - 12/26/14
 
SHARE

PRINT THIS DATA

[ ← Previous Day ]
WEATHER ALMANAC - FEBRUARY 13, 2013
[ Next Day → ]
[ °C ]   °F
Weather ElementAverageHighLow
Temperature46 °F60.1 °F (1:53 pm)32 °F (2:53 am)
Dewpoint12.7 °F24.1 °F (8:53 am)1 °F (1:53 pm)
Humidity34.1 %69 % (2:53 am)9 % (1:53 pm)
Barometer30.03 in30.11 in (8:53 am)29.94 in (4:53 pm)
Wind Speed8.6 mph12.7 mph (7:53 am)
Wind Gust25.3 mph (3:53 pm)
Weather ElementAverage
Visibility10 mi
Wind DirectionSSW (210.9 °)

Weather ElementTotal
Precipitation---
Heating Degree Days19 (Base 65)
Averaged from 23 records on February 13, 2013
WEATHER CONDITIONS BREAKOUT
WIND DIRECTION BREAKOUT
WEATHER BY HOUR - FEBRUARY 13, 2013
[ °C ]   °F
Local TimeTemperatureDewpointHumidityBarometerVisibilityWind DirectionWind SpeedGust SpeedPrecipitationEventsConditions
1:53 AM33.1 °F23.0 °F66 %30.10 in10.0 miSW (220°)10.4 mphClear
2:53 AM32.0 °F23.0 °F69 %30.09 in10.0 miSSW (210°)10.4 mphClear
3:53 AM32.0 °F23.0 °F69 %30.09 in10.0 miSW (220°)10.4 mphClear
4:53 AM33.1 °F23.0 °F66 %30.08 in10.0 miSW (220°)10.4 mphClear
5:53 AM33.1 °F23.0 °F66 %30.09 in10.0 miSSW (210°)11.5 mphClear
6:53 AM33.1 °F23.0 °F66 %30.10 in10.0 miSSW (210°)11.5 mphClear
7:53 AM34.0 °F23.0 °F64 %30.10 in10.0 miSW (220°)12.7 mphClear
8:53 AM39.9 °F24.1 °F53 %30.11 in10.0 miSW (230°)9.2 mphClear
9:53 AM48.0 °F23.0 °F37 %30.10 in10.0 miSW (230°)11.5 mphClear
10:53 AM53.1 °F18.0 °F25 %30.09 in10.0 miSW (230°)9.2 mphClear
11:53 AM55.0 °F10.9 °F17 %30.08 in10.0 miWSW (240°)6.9 mphClear
12:53 PM57.0 °F3.0 °F11 %30.04 in10.0 miSouth (180°)8.1 mphClear
1:53 PM60.1 °F1.0 °F9 %30.00 in10.0 miWest (270°)11.5 mphClear
2:53 PM60.1 °F1.9 °F10 %29.97 in10.0 miNW (310°)5.8 mphClear
3:53 PM60.1 °F1.9 °F10 %29.96 in10.0 miWNW (290°)11.5 mph25.3 mphClear
4:53 PM60.1 °F1.9 °F10 %29.94 in10.0 miVariable3.5 mphClear
5:53 PM59.0 °F1.9 °F10 %29.94 in10.0 miWNW (290°)5.8 mphClear
6:53 PM53.1 °F5.0 °F14 %29.96 in10.0 miNW (310°)3.5 mphClear
7:53 PM46.9 °F8.1 °F21 %29.98 in10.0 miCalmClear
8:53 PM45.0 °F8.1 °F22 %29.99 in10.0 miSouth (180°)4.6 mphClear
9:53 PM44.1 °F8.1 °F23 %29.99 in10.0 miSouth (170°)5.8 mphClear
10:53 PM44.1 °F7.0 °F22 %29.98 in10.0 miSouth (190°)10.4 mphClear
11:53 PM41.0 °F7.0 °F25 %29.98 in10.0 miSW (220°)12.7 mphClear
Hourly data recorded from KFST, located miles away from Fort Stockton, Texas







STORIES FROM OUR PARTNERS